星链-34642 (STARLINK-34642)

导读 | 豆包AI

STARLINK-34642是美国于2025年7月26日发射的星链系列卫星,归属太空探索技术公司(SpaceX)的星链星座项目。星链项目旨在构建全球卫星互联网通信网络,为全球偏远地区、海洋空域等场景提供高速低延迟宽带服务。该卫星是星链星座扩容过程中部署的一颗卫星,承担全球网络覆盖相关任务。

基本信息
目录编号:
64910
目录名称:
STARLINK-34642
国际标识:
2025-157G
轨道中心:
EARTH
卫星名称:
星链-34642
卫星全名:
星链-34642 (STARLINK-34642)
卫星状态:
在轨 (已飞行231 天)
发射日期:
2025-07-26 UTC
国别 :
美国 (US)
星等 :
--
轨道信息
数据来源 国际轨道数据 AOE轨道数据
星历时间 2026-03-14T07:24:33+0800
14小时前
查看轨道信息
2026-03-13T15:00:00+0800
1天前
查看轨道信息
半长轴 6853.342km 6853.283km
偏心率 0.0001337 0.0001242
轨道倾角 53.159° 53.156°
近地点辐角 89.735° 70.228°
升交点赤经 325.504° 328.679°
平近点角 270.381° 121.421°
近地点 474.288km 474.294km
远地点 476.122km 475.998km
周期 94.105分钟 94.104分钟
每日圈数 15.302035 15.302232
详细信息
固有亮度:
5
最大亮度:
2.5
卫星平台:
Starlink V1.0
覆盖范围:
全球
运营商:
太空探索技术公司
运营商所在国:
美国
制造商(研发单位):
太空探索技术公司
制造商所在国:
美国
使用方式:
暂无
卫星简介
Starlink 计划是 SpaceX 推出的全球卫星互联网项目,通过发射低轨道卫星,为全球尤其是偏远地区提供高速、低延迟的互联网服务。自 2019 年起,Starlink 已部署数千颗卫星,旨在缩小全球数字鸿沟,推动互联网普及。该项目还为军事、航空等行业提供通信支持,带来广泛经济效益。
2D轨道图
3D轨道图
轨道高度分析图
轨道倾角分析图
轨道综合分析图
查看轨道综合分析图